GEO-KOMPSAT-2A

Last updated on Jan. 20, 2021, 6:21 a.m. UTC

1 43823U 18100A   21019.85962476 -.00000339  00000-0  00000-0 0  9996
2 43823   0.0503 248.2161 0002175  34.9464 273.9858  1.00270744  7823
UTC
Height (km)
Latitude
Longitude
Inclination
Orbital Period
UTC large
Height (km)
Speed (km/s)
/
Latitude / Longitude
Inclination (degrees)
Orbital Period (minutes)
Azimuth
Elevation
Range (km)
Doppler Factor
iOS Compass Heading
iOS Angle

Next 30 passes for location: Hong Kong

Rise time Rise Azimuth (degrees) Set time Set Azimuth (degrees) Duration Max altitude (degrees)

No matching passes for this satellites